Weather History for Annette Island, AK

Change the Weather History Date:

Monday, November 19, 2012

  Actual Average Record
Temperature  
Mean Temperature 44 °F 39 °F  
Max Temperature 45 °F 44 °F 52 °F (2001)
Min Temperature 42 °F 35 °F 16 °F (1963)
Degree Days  
Heating Degree Days 21 26  
Month to date heating degree days 445 459  
Since 1 July heating degree days 1873 1759  
Cooling Degree Days 0    
Month to date cooling degree days 0  
Year to date cooling degree days 7  
Moisture  
Dew Point 37 °F    
Average Humidity 0    
Maximum Humidity 0    
Minimum Humidity 0    
Precipitation  
Precipitation 0.22 in 0.39 in 2.03 in (1980)
Month to date precipitation 9.18 8.07  
Year to date precipitation 91.80 86.69  
Snow  
Snow 0.00 in 0.10 in 5.00 in (1973)
Month to date snowfall 0.0 1.7  
Since 1 July snowfall T 1.8  
Since 1 September snowfall 0.0 1.8  
Snow Depth 0.00 in    
Sea Level Pressure  
Sea Level Pressure 29.22 in    
Wind  
Wind Speed 15 mph (ESE)    
Max Wind Speed 28 mph    
Max Gust Speed 36 mph    
Visibility 9 miles    
Events Rain    
T = Trace of Precipitation, MM = Missing Value Source: NWS Daily Summary

Daily Weather History Graph

Daily Weather History Graph

Search for Another Location

Airport:

Trip Planner

Search our weather history database for the weather conditions in past years. The results will help you decide how hot, cold, wet, or windy it might be!

Date:

Astronomy

Nov. 19, 2012 Rise Set
Actual Time 7:27 AM AKST 3:35 PM AKST
Civil Twilight 6:45 AM AKST 4:17 PM AKST
Nautical Twilight 6:00 AM AKST 5:02 PM AKST
Astronomical Twilight 5:17 AM AKST 5:45 PM AKST
Moon 12:09 PM AKST (11/19) 10:40 PM AKST (11/19)
Length of Visible Light 9h 31m
Length of Day
8h 07m
Waxing Crescent, 42% of the Moon is Illuminated
Nov 19
Waxing Crescent
Nov 20
First Quarter
Nov 28
Full
Dec 6
Last Quarter
Dec 12
New

Hourly Weather History & Observations

Time (AKST) Temp. Windchill Dew Point Humidity Pressure Visibility Wind Dir Wind Speed Gust Speed Precip Events Conditions
12:53 AM 42.1 °F 34.5 °F 36.0 °F 79% 29.04 in 10.0 mi East 15.0 mph 25.3 mph 0.02 in Rain Light Rain
1:53 AM 45.0 °F 39.3 °F 35.1 °F 68% 29.03 in 10.0 mi ESE 11.5 mph 25.3 mph 0.01 in Rain Light Rain
2:39 AM 42.8 °F 34.3 °F 37.4 °F 81% 29.05 in 8.0 mi ESE 19.6 mph 32.2 mph 0.02 in Rain Rain
3:53 AM 44.1 °F 34.8 °F 39.0 °F 82% 29.08 in 10.0 mi SE 25.3 mph 35.7 mph 0.01 in Rain Light Rain
4:49 AM 44.6 °F 36.1 °F 37.4 °F 76% 29.11 in 10.0 mi ESE 21.9 mph 34.5 mph 0.00 in   Overcast
4:53 AM 44.1 °F 35.4 °F 37.9 °F 79% 29.11 in 10.0 mi ESE 21.9 mph 32.2 mph 0.00 in   Overcast
5:25 AM 44.6 °F 36.4 °F 37.4 °F 76% 29.11 in 10.0 mi SE 20.7 mph 29.9 mph N/A   Overcast
5:53 AM 44.1 °F 35.4 °F 37.9 °F 79% 29.13 in 10.0 mi ESE 21.9 mph 33.4 mph N/A   Overcast
6:53 AM 43.0 °F 33.3 °F 37.9 °F 82% 29.16 in 10.0 mi SE 25.3 mph 31.1 mph 0.00 in Rain Light Rain
7:25 AM 44.6 °F 38.4 °F 37.4 °F 76% 29.17 in 10.0 mi ESE 12.7 mph 23.0 mph 0.00 in   Overcast
7:53 AM 44.1 °F 35.9 °F 37.0 °F 76% 29.17 in 10.0 mi SE 19.6 mph 27.6 mph 0.00 in   Overcast
8:53 AM 44.1 °F 37.1 °F 36.0 °F 73% 29.18 in 10.0 mi ESE 15.0 mph 26.5 mph 0.00 in   Overcast
9:53 AM 44.1 °F 38.1 °F 36.0 °F 73% 29.19 in 10.0 mi ESE 11.5 mph 23.0 mph N/A   Overcast
10:44 AM 44.6 °F 36.1 °F 37.4 °F 76% 29.20 in 6.0 mi SE 21.9 mph 31.1 mph 0.00 in Rain Rain
10:53 AM 42.1 °F 34.5 °F 37.9 °F 85% 29.21 in 5.0 mi ESE 15.0 mph 27.6 mph 0.02 in Rain Light Rain
11:10 AM 42.8 °F 36.6 °F 37.4 °F 81% 29.20 in 10.0 mi ESE 11.5 mph 24.2 mph 0.00 in   Overcast
11:33 AM 42.8 °F 37.0 °F 37.4 °F 81% 29.21 in 8.0 mi ESE 10.4 mph 17.3 mph 0.02 in Rain Light Rain
11:53 AM 42.1 °F 34.9 °F 37.9 °F 85% 29.22 in 6.0 mi ESE 13.8 mph 23.0 mph 0.03 in Rain Rain
12:53 PM 42.1 °F 36.1 °F 39.0 °F 89% 29.22 in 10.0 mi ESE 10.4 mph 19.6 mph 0.10 in   Overcast
1:01 PM 42.8 °F 36.6 °F 39.2 °F 87% 29.21 in 10.0 mi ESE 11.5 mph 19.6 mph N/A   Overcast
1:53 PM 44.1 °F 38.6 °F 37.0 °F 76% 29.21 in 10.0 mi ESE 10.4 mph - N/A   Mostly Cloudy
2:53 PM 44.1 °F 37.7 °F 37.0 °F 76% 29.23 in 10.0 mi ESE 12.7 mph - N/A   Mostly Cloudy
3:53 PM 44.1 °F 39.0 °F 35.1 °F 71% 29.24 in 10.0 mi ESE 9.2 mph - N/A   Overcast
4:53 PM 44.1 °F 40.1 °F 35.1 °F 71% 29.25 in 10.0 mi SE 6.9 mph - 0.00 in   Overcast
5:53 PM 44.1 °F 39.5 °F 36.0 °F 73% 29.26 in 10.0 mi ESE 8.1 mph - N/A   Mostly Cloudy
6:53 PM 44.1 °F 39.5 °F 36.0 °F 73% 29.28 in 10.0 mi ESE 8.1 mph 18.4 mph 0.00 in   Overcast
7:53 PM 44.1 °F 38.6 °F 36.0 °F 73% 29.29 in 10.0 mi ESE 10.4 mph - 0.00 in Rain Light Rain
8:02 PM 44.6 °F 38.8 °F 37.4 °F 76% 29.30 in 10.0 mi ESE 11.5 mph 19.6 mph 0.00 in Rain Light Rain
8:12 PM 42.8 °F 34.8 °F 37.4 °F 81% 29.31 in 7.0 mi SSE 17.3 mph 24.2 mph 0.01 in Rain Rain
8:32 PM 42.8 °F 37.0 °F 37.4 °F 81% 29.32 in 10.0 mi ESE 10.4 mph - 0.04 in   Overcast
8:53 PM 42.1 °F 35.7 °F 37.9 °F 85% 29.33 in 10.0 mi ESE 11.5 mph - 0.04 in   Overcast
9:05 PM 42.8 °F 37.5 °F 37.4 °F 81% 29.33 in 10.0 mi ESE 9.2 mph - N/A   Overcast
9:53 PM 43.0 °F 37.7 °F 37.9 °F 82% 29.34 in 10.0 mi ESE 9.2 mph - N/A   Overcast
10:53 PM 43.0 °F 36.4 °F 37.9 °F 82% 29.37 in 10.0 mi ESE 12.7 mph 19.6 mph N/A   Overcast
11:44 PM 42.8 °F 37.0 °F 37.4 °F 81% 29.38 in 10.0 mi ESE 10.4 mph - N/A   Partly Cloudy
11:53 PM 43.0 °F 37.2 °F 37.0 °F 80% 29.39 in 10.0 mi ESE 10.4 mph 16.1 mph N/A   Mostly Cloudy